Date,TemperatureHighF,TemperatureAvgF,TemperatureLowF,DewpointHighF,DewpointAvgF,DewpointLowF,HumidityHigh,HumidityAvg,HumidityLow,PressureMaxIn,PressureMinIn,WindSpeedMaxMPH,WindSpeedAvgMPH,GustSpeedMaxMPH,PrecipitationSumIn
2013-1-1,56.3,38.6,28.7,37.0,31.5,27.0,95,79,37,30.28,30.20,6,0,6,0.00
2013-1-2,54.4,35.6,24.1,38.0,29.8,22.0,94,81,50,30.25,30.14,5,1,8,0.01
2013-1-3,54.4,36.4,23.9,40.0,30.8,22.0,94,82,48,30.28,30.18,4,0,6,0.00
2013-1-4,58.1,39.0,28.0,43.0,33.8,26.0,94,83,50,30.30,30.18,4,0,6,0.01
2013-1-5,46.3,39.2,28.5,44.0,37.2,27.0,95,92,82,30.26,30.06,7,1,10,0.38
2013-1-6,53.6,44.0,33.0,46.0,40.9,31.0,95,89,73,30.20,30.07,4,1,6,0.04
2013-1-7,60.0,43.1,31.4,50.0,39.5,30.0,95,88,67,30.25,30.14,5,1,6,0.00
2013-1-8,60.2,44.5,37.5,51.0,41.5,36.0,95,90,68,30.25,30.12,2,0,5,0.01
2013-1-9,50.5,42.4,31.6,47.0,39.0,29.0,95,88,71,30.16,29.98,9,2,13,0.01
2013-1-10,50.1,39.0,27.2,36.0,30.3,26.0,94,73,47,30.21,30.08,12,3,21,0.00
2013-1-11,53.2,39.8,28.5,41.0,32.9,26.0,92,77,56,30.25,30.12,8,1,9,0.00
2013-1-12,50.0,35.9,25.4,36.0,28.9,23.0,93,78,46,30.26,30.14,5,1,7,0.00
2013-1-13,51.5,33.2,21.4,34.0,26.5,19.0,93,79,34,30.28,30.18,6,0,6,0.00
2013-1-14,55.5,36.6,22.9,34.0,26.2,17.0,92,70,32,30.40,30.24,4,1,7,0.00
2013-1-15,53.4,35.7,24.2,36.0,29.3,22.0,94,80,48,30.49,30.40,5,1,7,0.00
2013-1-16,57.1,36.6,23.6,39.0,30.4,22.0,94,80,50,30.45,30.27,4,0,6,0.01
2013-1-17,59.7,37.1,24.2,41.0,28.6,-99.9,94,78,45,30.29,30.15,3,-21,6,0.00
2013-1-18,62.2,38.9,25.7,42.0,31.9,24.0,94,79,39,30.24,30.14,4,0,6,0.01
2013-1-19,63.6,38.2,23.9,43.0,31.0,22.0,94,79,35,30.26,30.15,4,1,6,0.00
2013-1-20,62.4,39.2,24.4,40.0,31.2,22.0,94,77,38,30.24,30.12,5,1,6,0.00
2013-1-21,61.3,39.2,23.3,43.0,32.2,21.0,94,79,42,30.19,30.08,3,0,7,0.01
2013-1-22,60.4,41.6,25.9,42.0,34.6,24.0,94,79,45,30.12,29.99,5,0,7,0.00
2013-1-23,49.7,45.9,40.5,47.0,43.7,38.0,95,92,87,30.09,29.96,3,0,5,0.44
2013-1-24,59.6,51.2,46.4,54.0,48.8,45.0,95,91,80,30.19,30.07,3,1,6,0.00
2013-1-25,61.9,52.6,44.4,55.0,49.8,43.0,95,90,74,30.20,30.04,6,0,6,0.00
2013-1-26,57.6,46.7,35.0,46.0,39.1,32.0,95,77,47,30.08,29.97,9,2,15,0.01
2013-1-27,55.7,41.7,28.9,38.0,32.1,27.0,94,72,37,30.19,30.07,12,2,17,0.00
2013-1-28,57.3,45.4,34.1,40.0,36.2,31.0,92,72,47,30.30,30.17,11,3,16,0.00
2013-1-29,63.8,44.9,31.1,44.0,37.3,29.0,94,78,44,30.36,30.27,7,1,8,0.00
2013-1-30,66.8,45.2,31.4,48.0,38.4,30.0,95,80,50,30.34,30.25,5,1,9,0.00
2013-1-31,66.0,44.5,29.3,47.0,38.0,28.0,95,80,49,30.30,30.18,5,1,7,0.01
2013-2-1,68.3,45.5,30.1,48.0,38.9,28.0,95,81,47,30.22,30.11,5,1,6,0.00
2013-2-2,60.2,43.9,34.8,51.0,40.4,33.0,95,88,67,30.31,30.21,7,1,9,0.01
2013-2-3,60.8,46.2,34.2,49.0,41.7,32.0,95,85,64,30.25,30.14,6,1,8,0.00
2013-2-4,54.3,43.4,35.4,48.0,41.1,34.0,95,91,79,30.18,30.07,7,1,11,0.00
2013-2-5,60.1,48.4,37.2,49.0,43.6,35.0,94,84,63,30.16,30.05,10,1,15,0.01
2013-2-6,60.0,43.4,28.6,46.0,36.8,27.0,95,79,56,30.20,30.10,6,1,11,0.01
2013-2-7,54.9,44.5,35.1,45.0,38.5,33.0,95,82,50,30.16,29.99,8,1,14,0.11
2013-2-8,58.2,42.5,30.7,41.0,33.8,29.0,95,75,36,30.03,29.94,9,2,14,0.01
2013-2-9,60.2,40.0,25.8,37.0,28.8,24.0,93,70,29,30.11,30.02,6,1,9,0.00
2013-2-10,64.9,41.3,25.7,44.0,31.8,24.0,93,73,34,30.13,30.01,7,1,8,0.00
2013-2-11,66.8,44.5,27.9,39.0,32.9,26.0,94,70,29,30.23,30.09,5,1,9,0.00
2013-2-12,61.6,43.4,30.3,45.0,36.5,29.0,94,79,46,30.36,30.23,8,1,10,0.01
2013-2-13,65.8,43.9,28.5,47.0,37.2,27.0,94,80,48,30.35,30.20,7,1,9,0.00
2013-2-14,69.9,47.0,31.0,52.0,39.9,29.0,95,79,48,30.25,30.15,5,1,10,0.00
2013-2-15,71.8,48.2,30.7,48.0,38.6,29.0,95,74,37,30.27,30.20,6,1,8,0.01
2013-2-16,73.0,48.2,33.1,49.0,39.8,31.0,95,77,33,30.25,30.05,6,1,9,0.00
2013-2-17,65.8,46.3,35.4,46.0,38.6,33.0,95,78,37,30.06,29.96,7,1,10,0.01
2013-2-18,54.2,42.2,30.9,44.0,37.4,29.0,95,84,65,30.03,29.92,5,1,12,0.00
2013-2-19,49.5,39.8,29.6,42.0,33.9,27.0,94,81,53,29.97,29.75,19,2,23,0.19
2013-2-20,59.1,41.8,25.0,38.0,31.2,23.0,93,70,34,30.07,29.86,9,2,18,0.00
2013-2-21,62.5,45.6,31.2,39.0,34.2,29.0,91,69,31,30.18,30.06,7,1,10,0.00
2013-2-22,64.6,46.4,29.3,46.0,38.0,27.0,94,75,44,30.25,30.16,9,1,11,0.00
2013-2-23,58.4,48.5,36.5,43.0,33.9,27.0,89,61,32,30.27,30.17,11,4,16,0.00
2013-2-24,67.7,44.5,27.9,36.0,30.5,19.0,93,66,17,30.27,30.14,5,1,10,0.00
2013-2-25,67.6,46.0,29.4,43.0,31.3,8.0,94,67,10,30.27,30.14,15,2,22,0.00
2013-2-26,70.4,45.0,27.3,40.0,31.9,25.0,93,68,18,30.23,30.13,6,1,9,0.00
2013-2-27,69.0,48.0,28.1,45.0,36.6,26.0,94,70,36,30.36,30.21,8,1,10,0.00
2013-2-28,71.3,53.8,40.2,55.0,47.0,38.0,94,79,54,30.44,30.36,5,1,9,0.01
2013-3-1,72.8,51.9,36.6,53.0,44.1,35.0,95,78,41,30.43,30.24,7,1,11,0.00
2013-3-2,69.5,53.5,40.6,54.0,46.6,39.0,95,79,52,30.25,30.05,6,1,8,0.00
2013-3-3,66.4,53.0,42.6,51.0,45.6,40.0,93,78,48,30.08,30.00,4,1,10,0.00
2013-3-4,57.5,45.9,32.9,47.0,41.9,31.0,93,86,65,30.15,30.05,5,1,9,0.00
2013-3-5,53.3,44.5,31.2,48.0,40.6,29.0,95,87,71,30.08,29.76,20,4,28,0.64
2013-3-6,55.9,47.0,34.5,46.0,41.1,33.0,93,81,55,30.05,29.80,8,2,28,0.47
2013-3-7,53.9,43.4,33.2,43.0,37.6,31.0,94,82,53,30.00,29.88,6,1,10,0.00
2013-3-8,63.2,46.3,30.0,47.0,37.2,28.0,94,74,36,30.03,29.84,10,2,13,0.01
2013-3-9,70.2,48.5,30.7,47.0,37.9,29.0,94,72,28,30.32,30.04,4,1,10,0.00
2013-3-10,70.9,47.6,30.9,48.0,37.1,29.0,94,74,24,30.34,30.23,7,1,10,0.01
2013-3-11,71.7,49.5,32.4,52.0,41.5,31.0,95,77,36,30.27,30.09,8,1,11,0.00
2013-3-12,75.1,52.7,38.1,55.0,44.7,36.0,95,78,40,30.16,30.06,6,1,9,0.00
2013-3-13,79.0,54.6,37.0,57.0,45.8,35.0,95,76,35,30.17,30.05,4,1,8,0.00
2013-3-14,72.6,54.0,41.5,57.0,46.5,40.0,95,78,34,30.16,30.08,8,1,11,0.00
2013-3-15,75.1,52.9,37.7,57.0,44.2,36.0,95,76,37,30.14,30.02,12,1,15,0.01
2013-3-16,75.3,55.0,34.9,52.0,40.0,31.0,95,64,20,30.13,30.02,16,2,20,0.00
2013-3-17,68.7,52.6,35.9,47.0,40.3,33.0,92,66,37,30.14,30.03,10,2,15,0.00
2013-3-18,66.8,50.0,34.7,49.0,41.8,33.0,94,76,46,30.12,30.01,5,1,8,0.00
2013-3-19,58.5,49.3,39.6,50.0,43.5,38.0,94,81,59,30.12,30.05,4,0,5,0.07
2013-3-20,60.7,49.8,44.8,55.0,47.3,43.0,94,91,79,30.14,30.06,4,1,9,0.45
2013-3-21,66.1,49.2,33.5,46.0,40.9,32.0,95,76,41,30.14,30.00,8,1,11,0.01
2013-3-22,67.4,48.5,30.4,42.0,34.3,25.0,94,66,21,30.14,30.03,7,1,10,0.00
2013-3-23,66.8,48.2,32.1,43.0,37.4,30.0,94,71,36,30.14,30.03,7,1,11,0.00
2013-3-24,69.0,50.6,34.3,50.0,41.9,33.0,94,75,44,30.09,29.95,6,2,12,0.00
2013-3-25,58.8,45.8,37.6,48.0,41.5,36.0,95,86,62,30.03,29.93,7,1,9,0.00
2013-3-26,66.9,49.9,39.2,50.0,43.1,37.0,94,80,47,30.00,29.92,10,1,12,0.01
2013-3-27,58.9,50.8,42.2,52.0,46.8,40.0,93,86,72,30.02,29.95,5,1,12,0.00
2013-3-28,61.1,52.9,45.0,54.0,49.6,43.0,93,89,76,30.09,30.01,4,1,6,0.05
2013-3-29,74.2,57.6,44.2,58.0,50.5,42.0,95,79,50,30.10,30.01,9,1,13,0.01
2013-3-30,65.6,54.9,49.0,55.0,50.3,47.0,94,85,68,30.07,30.00,6,1,12,0.08
2013-3-31,60.4,54.5,49.1,56.0,52.0,47.0,94,91,81,30.07,30.00,6,1,14,0.97
2013-4-1,63.5,54.5,45.8,55.0,50.4,44.0,95,86,67,30.15,30.05,6,1,7,0.19
2013-4-2,69.1,52.8,42.8,56.0,47.9,41.0,95,85,55,30.19,30.08,7,1,12,0.00
2013-4-3,72.0,54.2,46.2,57.0,49.0,45.0,95,84,57,30.14,29.98,8,1,12,0.01
2013-4-4,58.8,53.1,48.3,56.0,51.1,46.0,95,92,88,30.11,29.98,9,2,13,0.86
2013-4-5,63.9,55.1,48.1,54.0,51.0,47.0,95,86,67,30.18,30.11,7,1,10,0.02
2013-4-6,66.8,55.9,49.7,58.0,50.8,48.0,95,84,63,30.19,30.11,9,1,13,0.02
2013-4-7,62.2,54.7,48.8,54.0,49.5,44.0,94,83,66,30.16,29.82,13,2,21,0.11
2013-4-8,67.5,54.3,45.5,44.0,37.1,34.0,84,55,31,30.06,29.80,16,6,27,0.00
2013-4-9,76.1,56.0,37.3,47.0,40.0,33.0,94,63,23,30.12,30.04,12,2,12,0.00
2013-4-10,84.4,63.2,42.4,60.0,48.1,41.0,94,64,25,30.18,30.02,13,2,24,0.00
2013-4-11,76.9,61.0,44.3,52.0,46.3,41.0,90,61,34,30.06,29.82,8,2,12,0.00
2013-4-12,78.0,55.8,38.6,55.0,45.9,37.0,95,74,27,29.92,29.80,8,1,12,0.00
2013-4-13,75.4,57.4,40.6,51.0,42.2,34.0,94,62,28,29.91,29.79,18,3,21,0.00
2013-4-14,69.9,53.1,35.8,47.0,39.6,29.0,92,65,26,29.93,29.84,25,4,33,0.00
2013-4-15,59.0,48.9,36.9,41.0,34.6,29.0,91,62,35,29.98,29.86,17,5,24,0.00
2013-4-16,66.7,52.1,33.5,40.0,32.5,24.0,90,53,21,30.19,29.98,10,3,15,0.00
2013-4-17,71.5,53.0,33.7,42.0,34.0,23.0,93,58,16,30.29,30.17,15,2,16,0.00
2013-4-18,75.8,56.7,36.3,49.0,40.6,34.0,94,62,25,30.27,30.17,5,1,13,0.00
2013-4-19,80.1,59.6,40.3,57.0,46.0,38.0,94,65,29,30.23,30.06,18,3,27,0.00
2013-4-20,80.1,60.6,41.3,53.0,44.0,36.0,93,61,21,30.12,29.96,9,1,11,0.00
2013-4-21,86.1,62.6,40.7,54.0,46.1,39.0,94,63,22,30.03,29.91,6,1,8,0.00
2013-4-22,87.6,65.2,44.7,55.0,46.8,25.0,94,61,10,29.96,29.83,8,1,11,0.00
2013-4-23,80.0,62.7,44.1,50.0,37.9,17.0,91,49,10,29.92,29.84,10,1,13,0.00
2013-4-24,61.1,50.2,41.4,50.0,44.9,39.0,94,83,66,29.97,29.84,13,3,16,0.00
2013-4-25,65.3,53.5,45.1,51.0,46.4,42.0,91,78,58,30.13,29.97,7,1,12,0.00
2013-4-26,67.4,52.2,39.8,55.0,46.4,38.0,94,82,59,30.24,30.13,10,1,11,0.00
2013-4-27,70.0,54.1,44.5,57.0,48.6,42.0,94,83,62,30.23,30.07,11,2,12,0.00
2013-4-28,86.4,60.9,42.1,60.0,49.9,40.0,95,72,32,30.07,29.86,8,1,10,0.00
2013-4-29,87.5,67.6,46.9,57.0,51.1,45.0,94,61,29,29.90,29.75,7,2,12,0.01
2013-4-30,85.3,65.5,43.9,51.0,42.2,24.0,93,52,11,29.87,29.78,10,2,12,0.00
2013-5-1,85.5,63.2,40.8,48.0,34.9,10.0,89,48,6,30.08,29.87,7,2,17,0.00
2013-5-2,88.6,63.5,39.4,50.0,38.7,23.0,93,52,11,30.15,30.06,7,1,11,0.00
2013-5-3,88.1,63.5,38.9,51.0,42.1,32.0,92,55,14,30.07,29.80,6,1,10,0.00
2013-5-4,86.0,61.1,41.8,56.0,45.3,32.0,93,65,15,29.79,29.56,7,2,12,0.00
2013-5-5,62.3,57.3,54.2,51.0,49.2,48.0,82,75,65,29.83,29.63,19,3,24,0.00
2013-5-6,68.3,57.2,48.4,54.0,48.0,-99.9,92,75,52,29.98,29.82,7,-10,14,0.00
2013-5-7,70.6,57.9,46.4,56.0,49.4,44.0,94,75,46,30.04,29.97,9,1,12,0.00
2013-5-8,66.2,54.0,45.9,55.0,48.9,44.0,93,83,63,30.13,30.04,7,1,13,0.00
2013-5-9,70.8,55.9,44.6,58.0,49.2,43.0,94,80,56,30.16,30.06,8,1,10,0.00
2013-5-10,71.1,56.9,46.4,58.0,50.7,44.0,93,81,61,30.18,30.08,9,2,13,0.00
2013-5-11,84.4,59.4,45.0,62.0,51.2,43.0,94,77,41,30.15,30.03,6,1,12,0.00
2013-5-12,84.4,62.0,44.1,63.0,51.0,42.0,94,72,28,30.14,30.00,8,1,10,0.00
2013-5-13,86.3,62.4,46.5,62.0,52.9,44.0,95,74,38,30.08,29.93,7,1,10,0.00
2013-5-14,86.6,63.1,46.0,59.0,50.7,43.0,94,68,23,29.97,29.86,7,2,10,0.00
2013-5-15,80.0,59.2,39.6,52.0,45.5,38.0,94,65,33,30.02,29.95,8,2,11,0.00
2013-5-16,71.7,60.6,53.2,55.0,49.6,45.0,86,68,48,30.00,29.92,8,2,13,0.00
2013-5-17,70.2,56.3,38.9,49.0,44.4,37.0,93,67,43,30.06,29.96,7,1,11,0.00
2013-5-18,80.6,59.9,37.2,52.0,44.4,35.0,94,62,34,30.12,30.05,12,3,18,0.00
2013-5-19,84.4,63.4,40.3,52.0,43.9,37.0,93,57,20,30.13,29.96,6,1,10,0.00
2013-5-20,88.7,64.2,42.8,53.0,44.8,33.0,94,60,14,30.00,29.88,8,1,15,0.00
2013-5-21,73.1,58.2,43.2,49.0,41.0,32.0,94,58,25,30.00,29.90,19,4,21,0.00
2013-5-22,68.8,56.2,44.2,43.0,33.5,28.0,77,44,24,30.04,29.89,13,5,21,0.00
2013-5-23,71.9,55.1,35.0,44.0,39.4,33.0,93,60,31,30.00,29.91,8,2,13,0.00
2013-5-24,74.8,55.5,33.8,47.0,41.2,32.0,93,64,33,30.00,29.89,8,1,10,0.00
2013-5-25,74.8,57.0,36.9,49.0,43.6,35.0,93,65,37,30.03,29.93,10,2,13,0.00
2013-5-26,72.2,60.1,44.9,53.0,48.2,42.0,92,67,49,30.10,30.02,8,2,13,0.00
2013-5-27,62.5,54.1,43.1,55.0,49.5,40.0,93,85,71,30.11,29.99,5,1,10,0.09
2013-5-28,72.9,61.6,53.9,58.0,53.9,50.0,94,77,54,29.99,29.91,7,1,10,0.01
2013-5-29,76.7,63.9,50.1,56.0,51.8,45.0,87,67,42,29.96,29.87,9,2,14,0.00
2013-5-30,82.6,61.8,38.4,51.0,43.8,36.0,93,58,27,29.98,29.90,6,1,13,0.00
2013-5-31,93.2,66.7,41.8,57.0,47.8,39.0,93,58,19,30.01,29.89,7,1,9,0.00
2013-6-1,94.5,69.8,46.2,63.0,51.9,44.0,93,59,25,29.93,29.76,9,1,13,0.00
2013-6-2,83.7,64.3,45.5,57.0,50.5,43.0,93,65,35,29.77,29.62,10,2,12,0.00
2013-6-3,66.9,56.2,44.2,53.0,48.8,42.0,94,77,59,29.88,29.70,10,2,13,0.00
2013-6-4,64.9,56.9,52.9,53.0,50.3,49.0,86,79,66,29.97,29.86,11,2,14,0.00
2013-6-5,70.7,58.5,51.3,55.0,50.6,47.0,89,76,57,30.00,29.91,9,3,14,0.00
2013-6-6,73.1,58.0,50.0,57.0,50.9,47.0,91,78,57,29.96,29.83,8,2,13,0.00
2013-6-7,87.9,64.1,49.5,65.0,54.6,47.0,94,74,45,29.89,29.70,5,1,8,0.00
2013-6-8,85.4,65.2,51.7,64.0,55.1,49.0,94,73,47,29.84,29.68,15,2,18,0.00
2013-6-9,65.4,58.5,54.7,55.0,52.9,52.0,91,82,69,29.90,29.84,9,2,10,0.00
2013-6-10,61.6,57.2,53.1,55.0,53.2,50.0,93,86,76,29.96,29.81,7,1,8,0.08
2013-6-11,78.7,63.1,49.3,60.0,53.7,46.0,93,74,43,29.98,29.86,8,1,11,0.00
2013-6-12,84.8,62.2,38.6,53.0,41.9,31.0,94,57,15,29.98,29.89,11,2,16,0.00
2013-6-13,83.9,61.5,37.8,50.0,41.9,-99.9,93,56,26,30.08,29.98,14,-8,17,0.00
2013-6-14,88.5,65.0,43.6,53.0,45.3,26.0,93,58,11,30.00,29.79,7,1,10,0.00
2013-6-15,78.2,59.4,41.1,55.0,48.5,39.0,94,70,43,29.97,29.82,10,2,14,0.00
2013-6-16,86.6,64.2,40.4,56.0,47.4,38.0,94,61,26,30.05,29.97,8,2,14,0.00
2013-6-17,79.5,62.7,42.6,57.0,50.3,40.0,93,67,42,30.07,29.98,7,1,13,0.00
2013-6-18,73.0,61.1,46.2,52.0,47.5,43.0,91,63,40,30.01,29.93,10,3,15,0.00
2013-6-19,78.5,63.4,46.1,53.0,46.5,42.0,87,57,36,30.04,29.97,8,2,12,0.00
2013-6-20,82.7,63.3,40.7,51.0,45.2,38.0,92,57,29,30.00,29.90,7,1,10,0.00
2013-6-21,88.0,64.8,41.4,53.0,46.5,39.0,93,59,22,29.97,29.86,8,1,12,0.00
2013-6-22,90.2,69.1,44.3,54.0,48.1,42.0,93,54,24,29.92,29.80,9,2,15,0.00
2013-6-23,70.1,61.6,52.9,60.0,55.3,50.0,90,80,68,29.84,29.79,8,1,9,0.00
2013-6-24,61.9,58.4,55.5,57.0,54.8,53.0,93,88,80,29.89,29.78,7,1,8,0.14
2013-6-25,63.1,60.4,57.9,61.0,58.5,56.0,94,93,92,29.98,29.87,7,1,11,0.96
2013-6-26,79.9,67.1,59.9,67.0,61.3,57.0,95,83,56,30.05,29.96,4,1,11,0.02
2013-6-27,89.6,69.7,56.1,69.0,60.8,54.0,95,76,45,30.08,29.98,5,1,9,0.00
2013-6-28,98.1,76.1,55.8,73.0,62.7,52.0,95,68,21,30.02,29.86,9,1,11,0.00
2013-6-29,103.9,77.8,54.6,70.0,61.0,53.0,95,63,20,29.90,29.75,8,1,11,0.00
2013-6-30,91.0,72.3,53.8,68.0,60.3,52.0,95,69,44,29.82,29.72,5,1,9,0.00
2013-7-1,91.7,71.4,52.5,69.0,60.0,51.0,95,70,45,29.82,29.77,8,1,10,0.00
2013-7-2,87.1,68.7,56.9,67.0,58.7,54.0,90,73,46,29.91,29.80,12,2,13,0.00
2013-7-3,86.1,68.8,55.0,66.0,58.5,53.0,94,72,47,29.91,29.75,10,2,13,0.00
2013-7-4,96.8,75.8,59.6,69.0,58.4,44.0,89,60,19,29.80,29.64,11,2,15,0.00
2013-7-5,80.2,65.0,48.7,60.0,53.0,46.0,92,67,48,29.73,29.66,9,2,12,0.00
2013-7-6,74.6,57.6,48.1,59.0,51.2,46.0,94,81,56,29.79,29.72,9,2,11,0.00
2013-7-7,77.5,60.0,48.3,60.0,52.2,46.0,93,78,47,29.86,29.78,9,2,11,0.00
2013-7-8,78.8,59.1,51.2,61.0,52.3,48.0,92,80,50,29.97,29.86,7,2,13,0.00
2013-7-9,90.4,66.0,50.6,63.0,53.4,49.0,94,70,26,30.04,29.91,6,1,11,0.00
2013-7-10,77.9,58.8,46.2,59.0,50.9,44.0,94,77,45,29.99,29.88,9,2,12,0.00
2013-7-11,72.0,56.2,47.6,58.0,50.4,45.0,93,82,60,29.95,29.85,9,2,12,0.00
2013-7-12,74.5,58.7,48.7,59.0,51.9,46.0,91,79,57,29.95,29.85,9,2,11,0.00
2013-7-13,81.5,60.3,42.5,60.0,51.0,41.0,94,74,44,29.95,29.88,8,2,11,0.00
2013-7-14,74.4,58.3,46.5,59.0,51.5,44.0,94,80,54,30.00,29.88,9,2,14,0.00
2013-7-15,67.7,55.6,49.4,56.0,50.3,47.0,92,83,63,29.93,29.83,9,2,13,0.00
2013-7-16,68.9,57.6,50.0,58.0,52.2,47.0,92,83,64,30.01,29.87,6,1,11,0.00
2013-7-17,79.7,59.1,43.2,62.0,52.3,41.0,94,80,49,30.09,30.01,9,2,11,0.00
2013-7-18,77.4,60.9,50.3,61.0,54.2,48.0,94,80,54,30.05,29.91,9,2,11,0.00
2013-7-19,81.7,61.3,48.7,63.0,53.4,46.0,94,78,49,29.95,29.80,9,2,15,0.00
2013-7-20,82.2,59.1,45.9,63.0,51.8,44.0,94,79,50,29.85,29.71,10,2,12,0.00
2013-7-21,78.0,60.9,51.3,58.0,51.9,48.0,91,75,47,29.89,29.76,9,3,13,0.00
2013-7-22,81.9,62.5,46.6,61.0,53.6,44.0,94,75,45,29.96,29.89,5,1,12,0.00
2013-7-23,76.2,65.4,56.8,61.0,56.4,53.0,89,74,55,29.99,29.94,8,2,11,0.00
2013-7-24,85.6,64.3,49.9,61.0,54.6,48.0,94,73,42,29.98,29.88,9,2,11,0.00
2013-7-25,76.9,61.6,50.5,58.0,52.9,47.0,92,75,52,30.02,29.91,9,2,11,0.00
2013-7-26,75.7,59.2,49.6,60.0,52.3,47.0,93,79,55,30.09,29.99,9,2,13,0.00
2013-7-27,74.1,59.5,49.3,59.0,52.4,47.0,93,79,57,30.03,29.85,8,2,12,0.00
2013-7-28,68.7,56.9,50.8,57.0,51.5,49.0,92,83,63,29.88,29.80,10,2,13,0.00
2013-7-29,68.6,56.0,50.2,56.0,51.2,47.0,92,84,65,30.02,29.84,6,1,10,0.00
2013-7-30,71.9,57.6,49.1,58.0,52.2,46.0,93,83,61,30.11,30.02,10,2,12,0.00
2013-7-31,78.7,60.7,49.4,60.0,53.3,46.0,93,79,50,30.09,29.95,7,1,10,0.00
2013-8-1,80.5,60.5,39.8,58.0,49.8,38.0,94,71,43,30.04,29.92,10,2,11,0.00
2013-8-2,85.8,62.2,40.6,57.0,49.1,39.0,94,68,28,29.97,29.85,8,2,11,0.00
2013-8-3,75.1,56.9,43.5,58.0,50.1,41.0,94,80,53,29.97,29.90,9,2,12,0.00
2013-8-4,74.3,57.4,49.0,57.0,50.9,46.0,93,81,53,30.01,29.93,8,2,12,0.00
2013-8-5,70.8,57.4,49.5,57.0,51.0,46.0,91,80,59,30.03,29.93,9,2,12,0.00
2013-8-6,75.2,59.0,51.5,57.0,51.7,49.0,91,78,52,30.04,29.98,5,1,9,0.00
2013-8-7,68.3,59.6,51.9,57.0,53.6,49.0,92,81,67,30.09,30.03,6,1,10,0.00
2013-8-8,72.8,58.9,46.4,59.0,52.3,44.0,94,80,58,30.03,29.93,11,1,12,0.00
2013-8-9,75.3,58.5,50.6,58.0,52.4,48.0,93,81,53,29.99,29.91,8,1,12,0.00
2013-8-10,76.6,61.4,51.9,60.0,54.2,49.0,93,79,54,30.04,29.98,5,1,12,0.00
2013-8-11,80.7,61.2,51.9,61.0,54.5,49.0,94,80,49,30.02,29.90,7,2,11,0.00
2013-8-12,79.1,59.9,49.3,61.0,53.2,47.0,94,80,52,29.99,29.91,9,2,12,0.00
2013-8-13,93.4,65.8,50.1,61.0,53.4,47.0,94,70,21,29.99,29.87,6,1,11,0.00
2013-8-14,93.1,66.4,42.6,61.0,51.9,41.0,94,66,25,29.96,29.84,6,1,10,0.00
2013-8-15,87.6,67.2,48.5,65.0,57.6,46.0,94,74,46,29.94,29.88,6,1,9,0.00
2013-8-16,90.4,69.0,54.4,66.0,57.1,50.0,94,71,28,29.97,29.90,6,1,12,0.00
2013-8-17,88.6,77.9,58.0,62.0,59.3,54.0,85,55,39,29.96,29.81,7,2,12,0.00
2013-8-18,97.8,71.4,49.9,65.0,56.5,48.0,94,65,27,29.87,29.74,8,1,10,0.00
2013-8-19,86.4,67.9,55.2,62.0,56.9,52.0,92,70,39,29.88,29.78,7,1,11,0.00
2013-8-20,80.2,63.6,57.0,60.0,56.6,53.0,91,79,47,29.90,29.82,8,2,11,0.00
2013-8-21,75.6,62.4,50.0,58.0,54.0,47.0,90,75,50,29.94,29.85,9,2,11,0.00
2013-8-22,74.2,60.1,48.1,58.0,52.4,46.0,93,77,52,29.97,29.88,6,1,10,0.00
2013-8-23,76.4,61.2,46.9,60.0,53.4,45.0,94,78,55,29.92,29.77,9,2,11,0.00
2013-8-24,85.3,63.6,44.3,59.0,53.4,42.0,94,72,41,29.87,29.80,8,1,9,0.00
2013-8-25,77.7,64.7,53.2,63.0,57.3,51.0,94,78,57,29.93,29.86,7,1,12,0.00
2013-8-26,82.7,65.8,51.5,60.0,55.0,49.0,94,72,40,30.00,29.87,4,1,9,0.00
2013-8-27,87.2,64.7,44.3,59.0,51.7,42.0,94,68,34,29.89,29.79,6,1,11,0.00
2013-8-28,83.7,64.7,50.1,64.0,56.7,48.0,94,78,50,29.93,29.84,4,1,9,0.00
2013-8-29,86.5,68.3,53.6,65.0,59.2,51.0,94,75,46,30.04,29.93,5,1,10,0.00
2013-8-30,94.9,70.4,50.0,65.0,56.7,48.0,94,68,26,30.02,29.87,7,1,9,0.00
2013-8-31,86.2,65.1,46.3,61.0,52.6,44.0,94,69,30,29.96,29.85,6,1,9,0.00
2013-9-1,82.7,65.1,51.5,60.0,55.5,49.0,94,74,42,29.94,29.85,5,1,9,0.00
2013-9-2,81.2,65.6,49.8,63.0,56.9,48.0,94,75,52,29.94,29.86,6,1,11,0.00
2013-9-3,80.9,63.2,44.5,58.0,52.3,42.0,94,71,39,29.98,29.89,5,0,9,0.00
2013-9-4,83.4,63.9,44.6,59.0,52.5,43.0,94,70,43,30.01,29.90,4,1,9,0.00
2013-9-5,83.9,64.5,44.2,58.0,51.4,42.0,94,67,38,29.98,29.91,10,1,12,0.00
2013-9-6,93.2,67.2,43.9,56.0,47.9,42.0,94,59,17,29.97,29.82,6,1,9,0.00
2013-9-7,95.6,68.8,44.5,57.0,46.5,34.0,94,56,12,29.87,29.78,8,1,10,0.00
2013-9-8,93.9,64.7,43.9,60.0,51.6,42.0,94,68,28,29.88,29.74,7,2,10,0.00
2013-9-9,99.7,64.9,44.3,63.0,50.8,42.0,94,68,15,29.81,29.67,5,1,7,0.00
2013-9-10,68.8,59.3,48.9,59.0,55.1,46.0,94,86,72,29.90,29.73,11,1,12,0.00
2013-9-11,68.6,63.0,60.3,60.0,58.9,58.0,94,86,74,30.00,29.90,2,0,6,0.00
2013-9-12,80.3,64.7,54.8,64.0,57.8,52.0,93,80,51,29.98,29.86,9,1,10,0.00
2013-9-13,81.6,62.9,50.5,60.0,55.2,47.0,94,78,48,29.90,29.73,7,1,10,0.00
2013-9-14,80.7,60.2,46.7,61.0,53.2,44.0,94,80,50,29.82,29.69,8,1,10,0.00
2013-9-15,79.1,61.1,45.6,59.0,53.6,43.0,94,79,48,29.85,29.76,6,1,12,0.00
2013-9-16,85.8,64.4,49.4,61.0,53.8,47.0,95,73,36,29.89,29.73,6,1,11,0.00
2013-9-17,80.7,62.5,42.7,54.0,47.9,41.0,94,64,34,29.88,29.79,13,3,22,0.00
2013-9-18,84.1,62.4,42.9,51.0,45.6,38.0,94,61,20,29.91,29.79,4,1,8,0.00
2013-9-19,89.0,61.4,39.9,52.0,43.2,16.0,94,62,7,29.85,29.73,7,1,11,0.03
2013-9-20,77.3,57.1,37.9,60.0,50.7,36.0,94,81,54,29.83,29.77,6,1,14,0.05
2013-9-21,69.5,61.1,50.4,61.0,55.9,48.0,95,84,57,29.89,29.77,7,1,16,0.15
2013-9-22,75.0,58.8,42.3,55.0,49.7,41.0,95,74,46,30.00,29.89,9,1,13,0.00
2013-9-23,83.4,63.0,44.9,61.0,53.3,43.0,95,74,44,30.02,29.90,5,1,8,0.00
2013-9-24,78.6,62.4,49.6,54.0,49.8,46.0,94,67,34,29.97,29.88,9,2,18,0.00
2013-9-25,72.2,58.0,42.2,50.0,43.3,40.0,94,62,31,29.94,29.82,13,3,18,0.00
2013-9-26,77.2,57.4,36.8,44.0,40.0,34.0,92,59,24,30.00,29.86,6,1,11,0.00
2013-9-27,79.0,56.3,36.8,47.0,37.9,31.0,94,60,17,30.10,30.00,6,1,12,0.00
2013-9-28,80.6,58.3,38.3,54.0,43.3,33.0,94,65,18,30.09,29.99,9,1,11,0.00
2013-9-29,72.2,59.8,49.5,62.0,56.5,47.0,94,89,71,30.09,30.03,4,1,7,0.03
2013-9-30,71.9,62.5,48.1,65.0,58.8,45.0,95,87,74,30.04,29.96,6,1,10,0.01
2013-10-1,79.4,55.9,38.1,52.0,44.4,36.0,95,71,28,30.01,29.90,6,1,9,0.01
2013-10-2,80.4,58.4,40.7,51.0,39.9,16.0,94,60,9,30.02,29.92,13,2,16,0.00
2013-10-3,76.1,63.5,50.3,39.0,30.6,10.0,65,34,8,30.09,29.97,15,6,25,0.00
2013-10-4,82.8,64.2,42.2,35.0,25.3,13.0,73,30,7,30.08,30.01,13,3,20,0.00
2013-10-5,86.5,56.9,33.6,40.0,32.1,18.0,90,52,8,30.19,30.08,4,1,9,0.00
2013-10-6,81.2,50.5,32.7,41.0,35.6,29.0,92,64,15,30.12,30.00,3,0,8,0.00
2013-10-7,84.6,55.0,34.3,46.0,37.1,32.0,92,61,15,30.00,29.85,4,0,9,0.00
2013-10-8,76.7,53.9,35.0,48.0,41.1,33.0,94,68,30,29.91,29.71,6,1,10,0.00
2013-10-9,74.8,53.3,36.0,46.0,39.4,34.0,94,66,27,29.76,29.62,8,1,17,0.00
2013-10-10,74.3,52.6,38.4,49.0,41.5,36.0,92,70,39,30.01,29.76,6,1,10,0.00
2013-10-11,68.7,50.3,37.8,50.0,44.0,35.0,94,81,50,30.10,29.97,9,1,10,0.00
2013-10-12,73.7,51.9,35.6,51.0,42.6,33.0,94,74,37,30.02,29.87,8,1,13,0.00
2013-10-13,75.6,53.9,35.5,49.0,41.0,33.0,94,67,31,30.07,29.93,4,1,10,0.00
2013-10-14,80.5,53.0,33.3,46.0,37.3,31.0,93,63,22,30.12,29.99,5,1,12,0.00
2013-10-15,85.0,53.6,31.9,41.0,32.4,21.0,93,56,10,30.05,29.95,6,1,12,0.00
2013-10-16,83.9,53.3,31.0,39.0,31.9,27.0,92,55,13,30.09,30.00,4,0,7,0.00
2013-10-17,83.3,54.0,31.7,39.0,34.2,29.0,90,57,15,30.09,29.95,5,1,8,0.00
2013-10-18,79.8,52.5,32.6,46.0,38.7,30.0,93,66,24,30.05,29.98,8,1,10,0.00
2013-10-19,85.4,54.5,31.6,45.0,37.6,29.0,93,62,15,30.09,29.98,5,1,7,0.00
2013-10-20,78.1,51.4,32.3,50.0,40.2,30.0,93,71,32,30.02,29.89,6,1,9,0.00
2013-10-21,72.1,49.8,40.5,52.0,41.5,-99.9,94,80,46,30.01,29.90,7,-20,8,0.00
2013-10-22,77.1,51.0,37.5,52.0,43.1,35.0,94,78,37,30.03,29.91,6,1,9,0.01
2013-10-23,72.2,49.4,39.7,53.0,43.5,38.0,94,82,52,29.98,29.89,7,1,9,0.01
2013-10-24,65.8,50.6,38.8,50.0,45.0,36.0,94,83,56,30.11,29.98,4,1,8,0.00
2013-10-25,72.1,48.9,34.6,52.0,42.1,33.0,95,80,46,30.18,30.08,5,0,6,0.00
2013-10-26,82.5,52.6,32.4,51.0,40.6,30.0,94,70,24,30.16,30.01,9,0,9,0.00
2013-10-27,63.5,47.4,34.2,50.0,41.6,32.0,94,81,56,30.03,29.64,6,1,13,0.01
2013-10-28,66.2,47.6,31.3,45.0,37.4,-99.9,93,72,44,29.83,29.66,6,-10,8,0.00
2013-10-29,65.1,50.6,36.3,47.0,42.8,34.0,93,76,51,30.05,29.83,7,1,8,0.00
2013-10-30,67.5,45.1,31.5,48.0,36.9,29.0,93,76,45,30.16,30.05,6,0,10,0.00
2013-10-31,73.8,48.8,30.5,47.0,38.2,28.0,93,71,37,30.18,30.05,5,1,11,0.00
2013-11-1,78.3,51.8,33.4,48.0,40.0,31.0,93,70,29,30.15,30.01,6,1,7,0.00
2013-11-2,74.9,53.9,34.7,52.0,40.6,27.0,93,65,20,30.02,29.88,9,2,16,0.00
2013-11-3,66.0,46.4,28.9,38.0,30.2,25.0,92,60,21,30.05,29.93,7,2,12,0.00
2013-11-4,71.6,46.2,25.3,38.0,27.5,23.0,92,58,16,30.11,29.93,9,1,15,0.00
2013-11-5,76.4,49.9,29.8,40.0,34.1,27.0,90,61,22,30.21,30.09,6,1,8,0.00
2013-11-6,75.7,53.7,36.6,49.0,39.1,34.0,90,63,29,30.26,30.16,7,1,8,0.00
2013-11-7,75.7,58.0,39.6,48.0,41.8,37.0,90,61,28,30.17,30.05,7,1,11,0.00
2013-11-8,76.2,48.4,33.5,52.0,38.8,30.0,94,74,33,30.09,29.95,7,1,13,0.00
2013-11-9,74.2,48.7,30.3,48.0,39.4,28.0,94,74,34,30.05,29.95,7,1,10,0.00
2013-11-10,65.4,47.2,34.8,51.0,41.5,33.0,94,82,58,30.12,30.02,4,1,9,0.00
2013-11-11,66.7,51.9,34.8,49.0,45.0,33.0,94,79,50,30.17,30.07,3,1,7,0.00
2013-11-12,73.6,55.7,41.8,50.0,46.3,39.0,90,73,42,30.28,30.16,5,1,6,0.00
2013-11-13,80.5,53.1,35.5,55.0,44.4,33.0,94,76,37,30.26,30.09,4,0,8,0.00
2013-11-14,63.4,47.7,37.7,54.0,44.1,35.0,95,88,70,30.11,29.89,3,0,5,0.01
2013-11-15,68.2,45.7,29.5,43.0,35.1,28.0,94,71,31,29.89,29.72,5,1,9,0.00
2013-11-16,67.5,47.4,29.7,47.0,38.1,27.0,93,74,42,29.92,29.77,13,2,18,0.00
2013-11-17,61.5,44.2,30.8,48.0,38.9,29.0,94,83,58,30.08,29.92,6,1,7,0.00
2013-11-18,57.5,45.0,32.2,48.0,40.5,30.0,95,85,70,30.16,30.08,4,0,8,0.02
2013-11-19,55.2,52.3,48.0,54.0,50.7,46.0,95,94,91,30.09,29.92,4,1,7,0.94
2013-11-20,58.6,54.3,47.2,56.0,52.5,45.0,95,93,84,29.92,29.84,5,0,7,0.08
2013-11-21,63.4,55.3,47.5,50.0,31.5,8.0,95,53,14,30.00,29.89,18,4,24,0.01
2013-11-22,73.8,63.7,44.0,19.0,1.6,-21.0,35,10,2,30.02,29.90,14,5,24,0.00
2013-11-23,67.6,55.4,32.1,34.0,21.4,3.0,86,34,9,30.11,29.95,8,2,14,0.00
2013-11-24,64.1,42.1,27.4,44.0,33.5,25.0,93,75,36,30.26,30.10,5,1,8,0.01
2013-11-25,63.9,42.8,28.6,43.0,35.7,27.0,94,79,42,30.34,30.25,3,0,7,0.00
2013-11-26,63.1,43.7,31.5,44.0,37.7,30.0,94,81,46,30.29,30.05,3,0,4,0.00
2013-11-27,65.8,45.1,30.5,45.0,37.9,29.0,94,79,46,30.05,29.84,5,1,8,0.01
2013-11-28,70.8,46.3,32.5,46.0,37.7,31.0,94,76,36,30.08,29.88,5,0,9,0.00
2013-11-29,69.2,46.3,30.7,47.0,38.1,29.0,94,77,39,30.23,30.08,3,0,9,0.00
2013-11-30,69.0,47.4,34.8,50.0,40.0,33.0,95,79,40,30.28,30.18,4,0,6,0.00
2013-12-1,70.3,47.5,32.5,50.0,40.3,31.0,95,79,44,30.34,30.22,3,0,7,0.00
2013-12-2,66.7,48.3,31.2,51.0,42.2,29.0,95,81,53,30.23,29.95,11,1,19,0.00
2013-12-3,55.7,47.9,29.0,50.0,32.4,24.0,88,58,29,29.95,29.84,13,3,18,0.00
2013-12-4,52.9,34.7,22.3,32.0,24.7,20.0,93,72,30,30.10,29.96,5,0,7,0.00
2013-12-5,50.1,32.8,18.5,31.0,25.3,16.0,96,77,39,30.17,30.09,5,1,9,0.00
2013-12-6,44.7,33.3,19.1,43.0,28.8,16.0,94,85,53,30.19,29.90,5,1,14,0.21
2013-12-7,46.3,35.4,24.0,38.0,27.7,22.0,94,77,40,30.27,29.92,17,2,17,0.07
2013-12-8,46.2,30.9,22.5,30.0,22.3,19.0,93,75,35,30.33,30.24,4,1,9,0.01
2013-12-9,51.0,30.8,17.5,30.0,22.1,15.0,92,74,36,30.43,30.32,5,1,8,0.00
2013-12-10,53.8,32.6,18.7,29.0,24.0,16.0,96,75,34,30.43,30.21,4,0,5,0.00
2013-12-11,57.0,35.0,21.7,36.0,27.1,19.0,93,76,41,30.26,30.18,4,0,6,0.01
2013-12-12,59.7,36.6,21.7,35.0,28.1,19.0,93,75,33,30.28,30.17,4,0,7,0.00
2013-12-13,62.5,37.9,22.9,41.0,30.4,20.0,93,78,38,30.34,30.24,3,0,4,0.00
2013-12-14,64.1,40.4,25.6,42.0,33.3,24.0,96,79,40,30.41,30.30,3,1,7,0.00
2013-12-15,61.7,40.5,25.3,42.0,34.4,23.0,97,81,47,30.39,30.24,2,0,5,0.00
2013-12-16,65.9,41.1,26.7,41.0,33.8,25.0,98,79,37,30.25,30.13,6,1,8,0.00
2013-12-17,62.4,40.3,27.4,42.0,33.3,25.0,95,79,43,30.19,30.04,2,0,5,0.01
2013-12-18,58.7,41.4,29.7,47.0,37.0,28.0,94,85,63,30.04,29.77,7,1,9,0.00
2013-12-19,62.0,48.5,30.5,37.0,29.3,17.0,78,52,23,29.95,29.73,13,3,15,0.00
2013-12-20,66.1,40.7,23.3,32.0,25.5,20.0,91,63,18,30.02,29.93,5,1,8,0.00
2013-12-21,67.2,45.7,30.6,48.0,38.6,28.0,95,78,46,30.09,29.97,5,1,7,0.00
2013-12-22,66.8,43.8,29.4,46.0,36.7,28.0,95,79,45,30.30,30.09,4,0,7,0.00
2013-12-23,66.8,44.1,28.2,45.0,36.8,26.0,98,79,42,30.40,30.29,5,0,5,0.00
2013-12-24,70.6,44.8,30.9,48.0,37.6,29.0,94,79,42,30.35,30.20,3,0,6,0.01
2013-12-25,65.8,41.8,27.9,44.0,34.1,26.0,95,78,38,30.31,30.20,4,0,5,0.00
2013-12-26,66.0,40.7,25.0,40.0,31.5,23.0,94,75,34,30.26,30.16,3,0,5,0.00
2013-12-27,56.1,37.5,26.1,40.0,31.3,24.0,94,81,48,30.25,30.14,2,0,3,0.00
2013-12-28,71.6,42.8,23.6,43.0,33.4,21.0,94,74,30,30.16,30.02,4,0,4,0.01
2013-12-29,66.6,43.4,25.2,34.0,29.3,23.0,93,64,25,30.19,30.08,3,0,6,0.00
2013-12-30,63.6,43.4,24.3,37.0,32.5,22.0,92,70,35,30.25,30.17,1,0,5,0.00
2013-12-31,64.0,42.3,28.9,45.0,35.7,27.0,97,80,39,30.28,30.16,2,0,3,0.00
2014-1-1,65.6,42.2,26.7,42.0,33.8,25.0,98,77,32,30.21,30.12,3,0,6,0.01
2014-1-2,64.6,43.7,27.8,42.0,35.0,26.0,94,75,41,30.19,30.06,3,0,4,0.00